CTN850 EDDF-LDZA

Flight info

Callsign CTN850
Flight time 1h 7m
Altitude 35000
Route CINDY8S/18 CINDY Z74 LAMPU DCT NOMBO Y161 MAH DCT LATLO DCT OBEDI DCT KLAGY DCT LULUD
Aircraft A319/M-SDE3FGHIRWY/LB1

Departure

Time 2026-04-14 08:29
Airport Frankfurt Main Airport (EDDF)

Arrival

Time 2026-04-14 09:36
Airport Zagreb Franjo Tuđman International Airport (LDZA)
Time Latitude Longitude Altitude Speed Heading
2026-04-14 07:59 50.04687 8.56700 356 ft 0 kts 115°
2026-04-14 08:15 50.04693 8.56679 359 ft 4 kts 115°
2026-04-14 08:16 50.04705 8.56642 359 ft 4 kts 119°
2026-04-14 08:16 50.04720 8.56610 361 ft 4 kts 154°
2026-04-14 08:16 50.04730 8.56605 359 ft 1 kts 236°
2026-04-14 08:16 50.04719 8.56580 361 ft 4 kts 237°
2026-04-14 08:17 50.04701 8.56549 357 ft 4 kts 219°
2026-04-14 08:17 50.04678 8.56530 356 ft 4 kts 206°
2026-04-14 08:17 50.04654 8.56512 356 ft 4 kts 205°
2026-04-14 08:17 50.04629 8.56495 358 ft 4 kts 204°
2026-04-14 08:18 50.04605 8.56478 360 ft 4 kts 204°
2026-04-14 08:18 50.04580 8.56461 356 ft 3 kts 204°
2026-04-14 08:18 50.04577 8.56459 356 ft 0 kts 204°
2026-04-14 08:20 50.04576 8.56457 356 ft 1 kts 204°
2026-04-14 08:20 50.04555 8.56443 360 ft 5 kts 204°
2026-04-14 08:21 50.04521 8.56395 359 ft 8 kts 239°
2026-04-14 08:21 50.04494 8.56292 359 ft 12 kts 249°
2026-04-14 08:21 50.04463 8.56167 359 ft 11 kts 249°
2026-04-14 08:21 50.04449 8.56106 361 ft 0 kts 249°
2026-04-14 08:22 50.04448 8.56102 360 ft 1 kts 249°
2026-04-14 08:22 50.04443 8.56082 356 ft 3 kts 249°
2026-04-14 08:22 50.04417 8.56036 356 ft 9 kts 206°
2026-04-14 08:22 50.04342 8.56056 357 ft 10 kts 161°
2026-04-14 08:23 50.04279 8.56048 357 ft 10 kts 227°
2026-04-14 08:23 50.04240 8.55943 354 ft 13 kts 249°
2026-04-14 08:23 50.04198 8.55766 353 ft 21 kts 250°
2026-04-14 08:23 50.04137 8.55513 355 ft 28 kts 250°
2026-04-14 08:24 50.04069 8.55229 355 ft 27 kts 249°
2026-04-14 08:24 50.04004 8.54957 359 ft 27 kts 250°
2026-04-14 08:24 50.03937 8.54677 354 ft 28 kts 249°
2026-04-14 08:24 50.03866 8.54390 351 ft 29 kts 243°
2026-04-14 08:25 50.03773 8.54114 349 ft 29 kts 250°
2026-04-14 08:25 50.03704 8.53821 346 ft 29 kts 249°
2026-04-14 08:25 50.03629 8.53524 339 ft 29 kts 249°
2026-04-14 08:25 50.03561 8.53240 337 ft 27 kts 250°
2026-04-14 08:26 50.03497 8.52970 336 ft 22 kts 249°
2026-04-14 08:26 50.03449 8.52794 336 ft 15 kts 247°
2026-04-14 08:26 50.03414 8.52658 332 ft 11 kts 248°
2026-04-14 08:26 50.03355 8.52594 335 ft 10 kts 192°
2026-04-14 08:27 50.03335 8.52593 335 ft 2 kts 177°
2026-04-14 08:27 50.03327 8.52594 335 ft 0 kts 177°
2026-04-14 08:27 50.03326 8.52594 335 ft 0 kts 177°
2026-04-14 08:28 50.03307 8.52595 335 ft 13 kts 178°
2026-04-14 08:28 50.02926 8.52598 335 ft 94 kts 180°
2026-04-14 08:28 50.02047 8.52607 336 ft 157 kts 180°
2026-04-14 08:28 50.00916 8.52604 834 ft 164 kts 182°
2026-04-14 08:29 49.99777 8.52602 1672 ft 163 kts 180°
2026-04-14 08:29 49.98649 8.52611 2661 ft 162 kts 179°
2026-04-14 08:29 49.97902 8.52627 3296 ft 164 kts 175°
2026-04-14 08:29 49.96813 8.53165 4057 ft 168 kts 146°
2026-04-14 08:30 49.95942 8.54503 4443 ft 187 kts 117°
2026-04-14 08:30 49.95306 8.56386 4789 ft 208 kts 115°
2026-04-14 08:30 49.94572 8.58488 5121 ft 233 kts 115°
2026-04-14 08:30 49.94068 8.60918 5725 ft 245 kts 95°
2026-04-14 08:31 49.93935 8.63678 6179 ft 269 kts 91°
2026-04-14 08:31 49.92886 8.69699 7198 ft 312 kts 123°
2026-04-14 08:31 49.91374 8.72152 8001 ft 319 kts 143°
2026-04-14 08:32 49.89574 8.74199 8907 ft 322 kts 142°
2026-04-14 08:32 49.88029 8.76737 9847 ft 327 kts 126°
2026-04-14 08:32 49.86867 8.79783 10691 ft 331 kts 120°
2026-04-14 08:32 49.85738 8.82913 11491 ft 335 kts 120°
2026-04-14 08:33 49.84593 8.86088 12268 ft 340 kts 121°
2026-04-14 08:33 49.83433 8.89303 13052 ft 344 kts 121°
2026-04-14 08:33 49.82253 8.92555 13821 ft 349 kts 121°
2026-04-14 08:33 49.81055 8.95852 14507 ft 353 kts 121°
2026-04-14 08:34 49.79849 8.99172 15233 ft 356 kts 121°
2026-04-14 08:34 49.78629 9.02521 16012 ft 359 kts 121°
2026-04-14 08:34 49.77397 9.05900 16774 ft 362 kts 121°
2026-04-14 08:34 49.76272 9.09422 17529 ft 368 kts 112°
2026-04-14 08:35 49.75556 9.13238 18253 ft 372 kts 105°
2026-04-14 08:35 49.74772 9.17048 18869 ft 373 kts 115°
2026-04-14 08:35 49.73533 9.20570 19433 ft 374 kts 126°
2026-04-14 08:35 49.71898 9.23702 20026 ft 375 kts 133°
2026-04-14 08:36 49.70163 9.26744 20618 ft 379 kts 133°
2026-04-14 08:36 49.68417 9.29813 21196 ft 382 kts 133°
2026-04-14 08:36 49.66659 9.32905 21773 ft 385 kts 133°
2026-04-14 08:36 49.64887 9.36033 22341 ft 389 kts 133°
2026-04-14 08:37 49.63090 9.39182 22895 ft 392 kts 135°
2026-04-14 08:37 49.61062 9.41999 23445 ft 393 kts 145°
2026-04-14 08:37 49.58753 9.44280 23942 ft 396 kts 151°
2026-04-14 08:37 49.56377 9.46447 24394 ft 399 kts 150°
2026-04-14 08:38 49.53975 9.48639 24798 ft 403 kts 150°
2026-04-14 08:38 49.51557 9.50847 25235 ft 406 kts 150°
2026-04-14 08:38 49.49118 9.53075 25676 ft 409 kts 150°
2026-04-14 08:38 49.46662 9.55317 26127 ft 411 kts 150°
2026-04-14 08:39 49.44196 9.57560 26574 ft 413 kts 151°
2026-04-14 08:39 49.41710 9.59813 27009 ft 416 kts 151°
2026-04-14 08:39 49.39215 9.62077 27439 ft 418 kts 151°
2026-04-14 08:39 49.36703 9.64354 27864 ft 420 kts 151°
2026-04-14 08:40 49.34244 9.66791 28320 ft 424 kts 144°
2026-04-14 08:40 49.32025 9.69809 28749 ft 429 kts 136°
2026-04-14 08:40 49.29948 9.73020 29156 ft 431 kts 136°
2026-04-14 08:40 49.27826 9.76280 29561 ft 433 kts 136°
2026-04-14 08:41 49.25683 9.79551 29956 ft 436 kts 137°
2026-04-14 08:41 49.23526 9.82821 30351 ft 437 kts 137°
2026-04-14 08:41 49.21333 9.86135 30718 ft 438 kts 137°
2026-04-14 08:41 49.19187 9.89383 31016 ft 441 kts 136°
2026-04-14 08:42 49.16974 9.92737 31303 ft 444 kts 136°
2026-04-14 08:42 49.14775 9.96071 31577 ft 447 kts 136°
2026-04-14 08:42 49.12571 9.99414 31915 ft 448 kts 136°
2026-04-14 08:42 49.10379 10.02726 32291 ft 448 kts 136°
2026-04-14 08:43 49.08161 10.06072 32663 ft 449 kts 136°
2026-04-14 08:43 49.05939 10.09414 33023 ft 450 kts 136°
2026-04-14 08:43 49.03680 10.12725 33381 ft 450 kts 137°
2026-04-14 08:43 49.01389 10.15982 33774 ft 451 kts 138°
2026-04-14 08:44 48.99071 10.19216 34141 ft 451 kts 139°
2026-04-14 08:44 48.96754 10.22437 34480 ft 451 kts 138°
2026-04-14 08:44 48.94444 10.25656 34834 ft 451 kts 138°
2026-04-14 08:44 48.92136 10.28892 35085 ft 452 kts 138°
2026-04-14 08:45 48.87498 10.35427 35149 ft 457 kts 138°
2026-04-14 08:45 48.82825 10.42004 35154 ft 459 kts 137°
2026-04-14 08:46 48.78328 10.48887 35147 ft 459 kts 134°
2026-04-14 08:46 48.74030 10.56005 35140 ft 454 kts 133°
2026-04-14 08:47 48.69765 10.63004 35143 ft 451 kts 134°
2026-04-14 08:47 48.65441 10.69873 35133 ft 451 kts 135°
2026-04-14 08:48 48.61094 10.76702 35130 ft 451 kts 135°
2026-04-14 08:48 48.56765 10.83551 35127 ft 451 kts 134°
2026-04-14 08:49 48.52456 10.90444 35117 ft 451 kts 135°
2026-04-14 08:49 48.48161 10.97324 35152 ft 450 kts 135°
2026-04-14 08:50 48.43828 11.04134 35150 ft 450 kts 136°
2026-04-14 08:50 48.39472 11.10874 35148 ft 449 kts 136°
2026-04-14 08:51 48.35119 11.17607 35143 ft 449 kts 136°
2026-04-14 08:51 48.30771 11.24333 35132 ft 448 kts 136°
2026-04-14 08:52 48.26543 11.31188 35132 ft 449 kts 128°
2026-04-14 08:52 48.23315 11.39242 35132 ft 450 kts 121°
2026-04-14 08:53 48.20234 11.47390 35131 ft 449 kts 122°
2026-04-14 08:53 48.17133 11.55515 35126 ft 449 kts 122°
2026-04-14 08:54 48.14042 11.63614 35126 ft 448 kts 122°
2026-04-14 08:54 48.10947 11.71707 35132 ft 447 kts 122°
2026-04-14 08:55 48.07847 11.79778 35134 ft 447 kts 122°
2026-04-14 08:55 48.04757 11.87825 35136 ft 447 kts 122°
2026-04-14 08:56 48.01661 11.95874 35134 ft 446 kts 122°
2026-04-14 08:56 47.98569 12.03866 35123 ft 446 kts 123°
2026-04-14 08:57 47.95448 12.11914 35119 ft 446 kts 123°
2026-04-14 08:57 47.92330 12.19905 35121 ft 446 kts 123°
2026-04-14 08:58 47.89221 12.27894 35111 ft 446 kts 123°
2026-04-14 08:58 47.86101 12.35870 35110 ft 446 kts 123°
2026-04-14 08:59 47.82962 12.43840 35107 ft 446 kts 123°
2026-04-14 08:59 47.79825 12.51805 35112 ft 446 kts 123°
2026-04-14 09:00 47.76682 12.59759 35109 ft 446 kts 123°
2026-04-14 09:00 47.73525 12.67713 35110 ft 446 kts 123°
2026-04-14 09:01 47.70373 12.75654 35099 ft 446 kts 124°
2026-04-14 09:01 47.66782 12.83059 35090 ft 440 kts 138°
2026-04-14 09:02 47.62452 12.89458 35096 ft 440 kts 139°
2026-04-14 09:02 47.58118 12.95860 35092 ft 440 kts 139°
2026-04-14 09:03 47.53782 13.02242 35081 ft 440 kts 139°
2026-04-14 09:03 47.49443 13.08612 35070 ft 440 kts 138°
2026-04-14 09:04 47.45129 13.14938 35062 ft 439 kts 139°
2026-04-14 09:04 47.40794 13.21288 35071 ft 439 kts 139°
2026-04-14 09:05 47.36456 13.27629 35063 ft 438 kts 139°
2026-04-14 09:05 47.32189 13.34053 35060 ft 441 kts 133°
2026-04-14 09:06 47.28335 13.41093 35055 ft 441 kts 132°
2026-04-14 09:06 47.24474 13.48114 35050 ft 441 kts 132°
2026-04-14 09:07 47.20598 13.55122 35049 ft 441 kts 132°
2026-04-14 09:07 47.16719 13.62123 35056 ft 442 kts 132°
2026-04-14 09:08 47.12837 13.69130 35056 ft 442 kts 132°
2026-04-14 09:08 47.08948 13.76133 35049 ft 442 kts 131°
2026-04-14 09:09 47.05057 13.83112 35059 ft 442 kts 132°
2026-04-14 09:09 47.01165 13.90075 35052 ft 442 kts 132°
2026-04-14 09:10 46.97265 13.97022 35061 ft 442 kts 132°
2026-04-14 09:10 46.93360 14.03969 35054 ft 441 kts 132°
2026-04-14 09:11 46.89460 14.10898 35065 ft 441 kts 132°
2026-04-14 09:11 46.85556 14.17806 35073 ft 441 kts 132°
2026-04-14 09:12 46.81676 14.24667 35074 ft 441 kts 132°
2026-04-14 09:12 46.77784 14.31537 35077 ft 440 kts 132°
2026-04-14 09:13 46.73835 14.38479 35069 ft 440 kts 132°
2026-04-14 09:13 46.70580 14.44175 35077 ft 440 kts 132°
2026-04-14 09:14 46.66666 14.51013 34175 ft 443 kts 132°
2026-04-14 09:14 46.64696 14.54452 33339 ft 437 kts 133°
2026-04-14 09:14 46.62789 14.57792 32826 ft 422 kts 133°
2026-04-14 09:15 46.60937 14.61029 32290 ft 415 kts 133°
2026-04-14 09:15 46.59095 14.64239 31734 ft 412 kts 133°
2026-04-14 09:15 46.57264 14.67419 31206 ft 408 kts 133°
2026-04-14 09:15 46.55445 14.70562 30684 ft 405 kts 132°
2026-04-14 09:16 46.53640 14.73678 30175 ft 402 kts 132°
2026-04-14 09:16 46.51841 14.76782 29595 ft 399 kts 133°
2026-04-14 09:16 46.49906 14.79610 29104 ft 392 kts 139°
2026-04-14 09:16 46.47932 14.82320 28594 ft 389 kts 139°
2026-04-14 09:17 46.45976 14.85009 28090 ft 386 kts 138°
2026-04-14 09:17 46.44039 14.87673 27621 ft 384 kts 138°
2026-04-14 09:17 46.42104 14.90329 27143 ft 383 kts 138°
2026-04-14 09:17 46.40172 14.92978 26677 ft 382 kts 138°
2026-04-14 09:18 46.38243 14.95616 26216 ft 380 kts 138°
2026-04-14 09:18 46.36323 14.98233 25771 ft 378 kts 138°
2026-04-14 09:18 46.34414 15.00831 25323 ft 376 kts 138°
2026-04-14 09:18 46.32520 15.03409 24888 ft 373 kts 138°
2026-04-14 09:19 46.30638 15.05973 24466 ft 370 kts 138°
2026-04-14 09:19 46.28769 15.08520 24036 ft 368 kts 138°
2026-04-14 09:19 46.26914 15.11046 23573 ft 366 kts 138°
2026-04-14 09:19 46.25066 15.13557 23101 ft 363 kts 138°
2026-04-14 09:20 46.23233 15.16038 22665 ft 359 kts 138°
2026-04-14 09:20 46.21419 15.18490 22231 ft 355 kts 138°
2026-04-14 09:20 46.19625 15.20910 21790 ft 352 kts 138°
2026-04-14 09:20 46.17843 15.23314 21355 ft 349 kts 138°
2026-04-14 09:21 46.16075 15.25698 20911 ft 347 kts 138°
2026-04-14 09:21 46.14322 15.28064 20474 ft 345 kts 138°
2026-04-14 09:21 46.12573 15.30426 20029 ft 343 kts 138°
2026-04-14 09:21 46.10861 15.32740 19600 ft 341 kts 138°
2026-04-14 09:22 46.08991 15.34916 18835 ft 344 kts 152°
2026-04-14 09:22 46.06840 15.36368 17940 ft 350 kts 157°
2026-04-14 09:22 46.04556 15.37808 16925 ft 357 kts 157°
2026-04-14 09:22 46.02266 15.39239 16133 ft 357 kts 157°
2026-04-14 09:23 46.00014 15.40645 15407 ft 351 kts 157°
2026-04-14 09:23 45.97798 15.42028 14839 ft 341 kts 157°
2026-04-14 09:23 45.95655 15.43373 14438 ft 332 kts 157°
2026-04-14 09:23 45.93560 15.44687 14009 ft 325 kts 156°
2026-04-14 09:24 45.91513 15.45973 13596 ft 318 kts 156°
2026-04-14 09:24 45.89534 15.47217 13185 ft 311 kts 156°
2026-04-14 09:24 45.87567 15.48450 12791 ft 307 kts 156°
2026-04-14 09:24 45.85596 15.49685 12388 ft 304 kts 156°
2026-04-14 09:25 45.83690 15.50879 11999 ft 301 kts 156°
2026-04-14 09:25 45.81776 15.52074 11614 ft 299 kts 156°
2026-04-14 09:25 45.79871 15.53262 11221 ft 298 kts 156°
2026-04-14 09:25 45.77980 15.54438 10825 ft 296 kts 156°
2026-04-14 09:26 45.76107 15.55601 10430 ft 290 kts 156°
2026-04-14 09:26 45.74290 15.56732 10248 ft 277 kts 156°
2026-04-14 09:26 45.72566 15.57807 10154 ft 265 kts 156°
2026-04-14 09:26 45.70908 15.58840 10039 ft 255 kts 156°
2026-04-14 09:27 45.69277 15.59854 9544 ft 260 kts 156°
2026-04-14 09:27 45.67615 15.60883 8947 ft 259 kts 156°
2026-04-14 09:27 45.65970 15.61903 8403 ft 257 kts 156°
2026-04-14 09:27 45.64352 15.62957 7863 ft 254 kts 150°
2026-04-14 09:28 45.62923 15.64420 7325 ft 254 kts 138°
2026-04-14 09:28 45.61641 15.66171 6749 ft 256 kts 137°
2026-04-14 09:28 45.60351 15.67922 6175 ft 255 kts 137°
2026-04-14 09:28 45.59064 15.69660 5597 ft 254 kts 136°
2026-04-14 09:29 45.57794 15.71370 5141 ft 247 kts 135°
2026-04-14 09:29 45.56573 15.73013 4794 ft 236 kts 135°
2026-04-14 09:29 45.55630 15.74803 4544 ft 219 kts 110°
2026-04-14 09:29 45.55394 15.76835 4402 ft 200 kts 85°
2026-04-14 09:30 45.55786 15.78687 4263 ft 195 kts 60°
2026-04-14 09:30 45.56641 15.80180 4143 ft 195 kts 48°
2026-04-14 09:30 45.57573 15.81587 4031 ft 194 kts 47°
2026-04-14 09:30 45.58499 15.82979 3909 ft 190 kts 47°
2026-04-14 09:31 45.59389 15.84319 3820 ft 184 kts 47°
2026-04-14 09:31 45.60255 15.85624 3798 ft 183 kts 47°
2026-04-14 09:31 45.61132 15.86947 3744 ft 184 kts 47°
2026-04-14 09:31 45.62007 15.88269 3567 ft 182 kts 47°
2026-04-14 09:32 45.62875 15.89578 3344 ft 181 kts 47°
2026-04-14 09:32 45.63737 15.90880 3108 ft 179 kts 47°
2026-04-14 09:32 45.65380 15.93364 2642 ft 165 kts 46°
2026-04-14 09:33 45.66153 15.94532 2419 ft 159 kts 45°
2026-04-14 09:33 45.66893 15.95653 2205 ft 148 kts 45°
2026-04-14 09:33 45.67561 15.96665 2011 ft 134 kts 45°
2026-04-14 09:33 45.68194 15.97623 1832 ft 130 kts 44°
2026-04-14 09:34 45.68812 15.98557 1654 ft 129 kts 44°
2026-04-14 09:34 45.69424 15.99485 1485 ft 128 kts 43°
2026-04-14 09:34 45.70033 16.00406 1300 ft 128 kts 45°
2026-04-14 09:34 45.70643 16.01334 1141 ft 128 kts 45°
2026-04-14 09:35 45.71258 16.02270 960 ft 128 kts 45°
2026-04-14 09:35 45.71870 16.03196 795 ft 127 kts 45°
2026-04-14 09:35 45.72469 16.04106 619 ft 125 kts 45°
2026-04-14 09:35 45.73069 16.05011 435 ft 125 kts 45°
2026-04-14 09:36 45.73638 16.05878 362 ft 108 kts 45°
2026-04-14 09:36 45.74034 16.06483 361 ft 58 kts 46°
2026-04-14 09:36 45.74273 16.06844 359 ft 47 kts 46°
2026-04-14 09:36 45.74491 16.07174 361 ft 45 kts 47°
2026-04-14 09:37 45.74634 16.07394 358 ft 12 kts 47°
2026-04-14 09:37 45.74678 16.07497 360 ft 13 kts 93°
2026-04-14 09:37 45.74619 16.07591 363 ft 13 kts 137°
2026-04-14 09:37 45.74556 16.07677 359 ft 13 kts 136°
2026-04-14 09:38 45.74490 16.07766 363 ft 13 kts 136°
2026-04-14 09:38 45.74424 16.07854 359 ft 10 kts 137°
2026-04-14 09:38 45.74369 16.07910 361 ft 10 kts 168°
2026-04-14 09:38 45.74316 16.07857 366 ft 10 kts 229°
2026-04-14 09:39 45.74268 16.07784 362 ft 8 kts 226°
2026-04-14 09:39 45.74240 16.07759 359 ft 4 kts 177°
2026-04-14 09:39 45.74214 16.07789 359 ft 5 kts 137°
2026-04-14 09:39 45.74191 16.07820 362 ft 3 kts 137°
2026-04-14 09:40 45.74186 16.07827 359 ft 0 kts 137°
2026-04-14 09:40 45.74184 16.07830 359 ft 0 kts 137°
2026-04-14 09:40 45.74182 16.07833 359 ft 1 kts 137°
2026-04-14 09:40 45.74177 16.07839 359 ft 0 kts 136°